SCP
0 0 0 0 0 0 0 0 0 0 0 0 0 0 0 0 0 0 0 0 0 0 0 0 0 0 0 0 0 0 0 0 0 0 0 0 0 0 0 0 0 0 0
0 0 0 0 0 0 0 0 0 0 0 0 0 0 0 0 0 0 0 0 0 0 0 0 0 0 0 0 0 0 0 0 0 0 0 0 0 0 0 0 0 0 0
0 0 0 0 0 0 0 0 0 0 0 0 0 0 0 0 0 0 0 0 0 0 0 0 0 0 0 0 0 0 0 0 0 0 0 0 0 0 0 0 0 0 0
0 0 0 0 0 0 0 0 0 0 0 0 0 0 0 0 0 0 0 0 0 0 0 0 0 0 0 0 0 0 0 0 0 0 0 0 0 0 0 0 0 0 0
0 0 0 0 0 0 0 0 0 0 0 0 0 0 0 0 0 0 0 0 0 0 0 0 0 0 0 0 0 0 0 0 0 0 0 0 0 0 0 0 0 0 0
0 0 0 0 0 0 0 0 0 0 0 0 0 0 0 0 0 0 0 0 0 0 0 0 0 0 0 0 0 0 0 0 0 0 0 0 0 0 0 0 0 0 0
0 0 0 0 0 0 0 0 0 0 0 0 0 0 0 0 0 0 0 0 0 0 0 0 0 0 0 0 0 0 0 0 0 0 0 0 0 0 0 0 0 0 0
0 0 0 0 0 0 0 0 0 0 0 0 0 0 0 0 0 0 0 0 0 0 0 0 0 0 0 0 0 0 0 0 0 0 0 0 0 0 0 0 0 0 0
0 0 0 0 0 0 0 0 0 0 0 0 0 0 0 0 0 0 0 0 0 0 0 0 0 0 0 0 0 0 0 0 0 0 0 0 0 0 0 0 0 0 0
0 0 0 0 0 0 0 0 0 0 0 0 0 0 0 0 0 0 0 0 0 0 0 0 0 0 0 0 0 0 0 0 0 0 0 0 0 0 0 0 0 0 0
0 0 0 0 0 0 0 0 0 0 0 0 0 0 0 0 0 0 0 0 0 0 0 0 0 0 0 0 0 0 0 0 0 0 0 0 0 0 0 0 0 0 0
0 0 0 0 0 0 0 0 0 0 0 0 0 0 0 0 0 0 0 0 0 0 0 0 0 0 0 0 0 0 0 0 0 0 0 0 0 0 0 0 0 0 0
0 0 0 0 0 0 0 0 0 0 0 0 0 0 0 0 0 0 0 0 0 0 0 0 0 0 0 0 0 0 0 0 0 0 0 0 0 0 0 0 0 0 0
0 0 0 0 0 0 0 0 0 0 0 0 0 0 0 0 0 0 0 0 0 0 0 0 0 0 0 0 0 0 0 0 0 0 0 0 0 0 0 0 0 0 0
0 0 0 0 0 0 1 0 0 0 0 0 0 0 0 0 0 0 0 0 0 0 0 0 0 0 0 0 0 0 0 0 0 0 0 0 0 0 0 0 0 0 0
0 0 0 0 0 1 1 1 1 1 1 0 0 0 0 0 0 0 0 0 0 0 0 0 0 0 0 0 0 0 0 0 0 0 0 0 0 0 0 0 0 0 0
0 0 0 0 0 1 1 1 1 1 1 1 1 0 0 0 0 0 0 0 0 0 0 0 0 0 0 0 0 0 0 0 0 0 0 0 0 0 0 0 0 0 0
0 0 0 0 0 1 1 1 1 1 1 1 1 1 1 0 0 0 0 0 0 0 0 0 0 0 0 0 0 0 0 0 0 0 0 0 0 0 0 0 0 0 0
0 0 0 0 1 1 1 1 1 1 1 1 1 1 1 1 0 0 0 0 0 0 0 0 0 0 0 0 0 0 0 0 0 0 0 0 0 0 0 0 0 0 0
0 0 0 0 1 1 1 1 1 1 1 1 1 1 1 1 0 0 0 0 0 0 0 0 0 0 0 0 0 0 0 0 0 0 0 0 0 0 0 0 0 0 0
0 0 0 1 1 1 1 1 1 1 1 1 1 1 1 0 0 0 0 0 0 0 0 0 0 0 0 0 0 0 0 0 0 0 0 0 0 0 0 0 0 0 0
1 1 1 1 1 1 1 1 1 1 1 1 1 1 1 0 0 0 0 0 0 0 0 0 0 0 0 0 0 0 0 0 0 0 0 0 0 0 0 0 0 0 0
1 1 1 1 1 1 0 0 0 1 1 1 1 1 1 0 0 0 0 0 0 0 0 0 0 0 0 0 1 0 0 0 0 0 0 0 0 0 0 0 0 0 0
1 1 1 1 1 1 0 0 0 0 1 1 1 1 0 0 0 0 0 0 0 0 0 0 0 0 0 0 0 0 0 0 0 0 0 0 0 0 0 0 0 0 0
1 1 1 1 1 1 0 0 0 0 0 0 0 0 0 0 0 0 0 0 0 0 0 0 0 0 0 0 0 0 0 0 0 0 0 0 0 0 0 0 0 0 0
1 1 1 1 1 1 0 0 0 0 0 0 0 0 0 0 0 0 0 0 0 0 0 0 0 0 0 0 0 0 0 0 0 0 0 0 0 0 0 0 0 0 0
Wind_Speed
0 0 0 0 1 1 2 2 2 2 3 4 3 3 4 3 3 2 3 8 7 7 7 7 7 8 9 9 9 9 9 8 8 7 8 8 9 9 9 10 10 10 10
1 1 1 1 1 1 1 1 2 2 2 2 3 3 4 3 3 3 3 6 8 7 7 7 7 8 8 8 9 9 9 9 8 8 8 8 9 9 10 10 10 10 10
1 1 1 1 1 1 1 2 2 2 2 2 3 3 3 3 2 3 3 3 5 8 8 7 7 8 8 8 8 9 9 9 9 9 9 9 9 9 9 9 10 10 10
1 2 1 1 2 1 1 1 2 1 1 1 2 2 2 2 3 3 3 3 3 4 7 8 7 7 8 8 8 8 8 9 9 9 9 10 10 10 9 9 9 9 9
1 1 1 1 2 1 1 2 0 1 1 1 2 2 2 2 2 3 3 3 3 3 3 6 8 7 7 7 7 8 8 8 9 10 10 11 10 10 9 9 9 9 9
1 2 1 1 2 1 1 1 1 1 2 2 2 1 2 2 2 2 3 2 2 3 2 2 4 6 8 6 6 6 8 8 8 9 10 11 11 10 9 9 9 9 9
0 1 1 0 1 1 2 2 2 2 1 1 2 2 2 2 2 2 2 2 2 2 2 3 3 2 3 8 6 5 6 6 7 7 7 9 11 11 10 10 9 9 9
1 1 1 2 1 1 1 2 2 3 1 0 2 2 2 3 3 2 2 3 2 2 2 3 2 3 4 3 3 5 5 6 7 7 7 7 8 10 11 11 11 10 10
1 2 2 2 2 2 1 2 2 2 2 0 1 2 2 2 1 2 2 2 2 2 3 2 4 4 4 3 2 4 4 5 6 6 7 7 7 8 10 11 11 11 11
1 2 2 2 3 2 1 3 1 2 3 2 1 1 2 3 3 2 2 2 3 3 3 3 3 3 4 3 2 1 1 4 6 7 7 7 7 8 8 11 12 12 12
2 2 2 2 2 2 2 3 2 3 2 2 2 1 1 2 3 3 3 3 3 3 3 3 2 2 3 3 3 1 1 3 4 6 6 7 7 7 8 9 11 12 12
2 2 2 2 3 2 2 2 3 3 2 3 2 2 2 2 2 3 4 4 3 2 2 2 3 2 3 3 3 1 2 3 4 4 5 6 6 7 7 9 10 11 11
2 1 2 2 3 2 3 3 3 3 3 3 3 3 3 3 3 3 4 4 4 3 3 3 2 2 3 2 2 2 4 4 4 5 5 5 6 6 7 8 9 9 10
2 2 2 3 3 3 3 2 3 3 2 3 3 3 3 3 3 4 4 4 5 4 3 3 2 2 2 3 1 4 4 4 5 5 5 5 5 6 6 7 8 9 9
2 2 3 3 3 3 4 4 3 3 3 4 3 3 4 3 3 3 3 4 5 5 4 2 3 2 3 3 2 4 4 3 5 5 5 5 6 6 6 6 8 8 8
3 3 4 3 3 3 4 4 4 2 3 3 3 3 4 4 3 3 3 4 4 5 5 3 3 3 3 4 3 4 5 4 6 6 6 6 6 6 6 6 7 8 8
3 4 4 4 4 4 3 3 4 3 4 4 4 3 4 4 4 4 3 4 4 4 5 5 3 2 3 5 4 4 5 5 4 6 6 6 6 6 6 6 6 7 8
4 5 5 4 4 4 4 4 4 4 4 4 4 4 5 4 4 4 4 4 4 4 6 7 5 4 4 4 4 6 5 4 4 5 7 6 6 6 6 6 6 6 6
5 5 5 5 4 4 4 4 4 4 4 4 4 4 4 4 4 4 5 4 4 5 5 6 6 4 4 3 4 5 5 4 5 4 7 7 6 6 6 6 6 6 5
5 5 5 5 5 5 4 4 4 4 4 4 4 4 4 4 4 5 5 4 5 5 5 5 5 4 4 3 4 4 4 3 4 4 3 4 6 8 7 7 7 6 6
5 5 5 5 5 5 4 3 4 5 5 5 4 4 4 4 4 5 5 4 4 5 5 5 5 4 4 3 4 4 4 4 4 4 4 4 4 5 6 8 7 6 6
5 4 4 4 5 4 1 3 5 5 5 5 5 5 5 5 5 6 6 6 7 7 6 6 5 5 5 5 4 5 5 5 4 2 4 5 4 4 4 3 4 6 6
4 5 4 4 5 3 3 4 5 6 5 5 5 5 4 3 4 4 6 8 8 9 8 8 7 7 7 4 5 6 5 6 6 4 4 5 4 4 4 2 6 6 7
4 4 4 4 4 3 3 4 5 6 5 5 5 5 5 4 4 5 6 6 6 5 7 7 6 7 6 5 6 7 7 7 7 5 4 5 4 4 3 2 6 7 8
4 4 4 4 4 3 3 4 6 5 5 6 5 5 5 5 3 5 7 6 6 6 6 6 6 7 6 7 7 6 6 6 6 4 3 5 4 4 4 4 5 9 9
4 4 4 4 4 4 3 4 6 5 5 5 4 4 4 5 4 5 7 6 6 6 6 5 7 8 8 8 9 8 7 6 6 5 2 4 4 3 4 3 3 4 5
Wind_Direction
278 8 288 269 252 232 213 221 225 223 229 221 222 224 237 242 247 231 162 168 186 200 206 204 202 206 203 204 206 211 214 215 213 217 220 221 220 218 222 221 222 221 222
7 337 287 279 273 252 274 260 251 242 241 239 229 224 236 233 232 236 208 174 181 189 199 205 208 211 211 212 210 212 215 217 217 221 224 225 225 226 226 224 222 222 222
2 313 320 291 330 324 263 246 251 247 235 238 244 232 225 238 226 237 227 208 182 181 191 204 214 217 215 217 214 216 217 219 220 222 226 228 226 227 227 225 225 223 223
296 293 318 339 346 308 286 248 239 246 255 259 246 244 214 204 215 224 221 213 218 202 186 194 210 218 217 219 222 220 219 223 223 224 225 225 225 227 225 226 227 226 225
297 283 335 8 293 291 288 275 42 285 268 274 242 228 229 211 216 214 218 219 218 227 219 182 200 211 216 220 226 228 227 229 230 228 229 226 223 223 224 223 225 225 223
290 291 254 308 295 320 304 322 297 282 278 278 280 274 247 220 223 221 229 215 217 233 242 230 211 198 201 214 225 234 236 237 234 234 232 228 226 225 223 220 220 222 219
304 286 314 339 295 327 320 308 293 262 257 267 259 248 226 215 211 211 230 243 216 230 236 234 245 257 204 198 211 231 240 243 240 242 240 233 229 226 221 218 218 219 218
282 244 292 293 315 289 274 292 294 297 304 306 296 271 239 200 203 211 217 225 240 232 228 225 242 241 260 244 179 208 242 248 247 249 247 242 235 226 220 219 219 217 216
274 312 306 302 303 280 274 276 279 283 305 316 340 295 290 299 268 196 217 227 239 245 242 237 236 242 246 256 245 195 230 246 246 249 244 241 241 236 227 221 217 215 216
266 281 295 304 297 294 284 265 283 282 278 277 218 256 290 320 294 260 217 214 233 237 244 253 250 238 240 246 233 257 241 246 249 252 249 250 249 243 234 226 222 219 218
248 270 280 287 283 282 292 298 291 282 270 277 276 256 239 236 251 270 274 266 240 230 237 245 255 254 246 243 245 193 234 253 258 254 253 254 255 250 242 236 227 221 221
243 252 266 276 275 293 284 275 275 259 278 292 286 268 255 260 262 260 265 266 267 258 255 259 260 255 255 256 250 132 232 238 252 257 256 255 255 257 251 242 234 226 224
260 265 282 275 283 287 282 278 261 280 275 272 269 271 267 268 279 277 275 278 277 268 249 246 249 263 265 265 250 215 230 224 241 250 255 258 260 262 260 246 236 230 227
280 294 270 268 275 279 280 277 266 257 258 269 272 278 272 271 274 272 273 281 278 269 249 254 253 255 272 267 279 238 244 205 226 242 248 254 256 258 261 251 241 231 225
259 262 259 257 265 269 271 266 266 269 267 266 266 256 266 270 264 271 272 271 276 280 277 247 256 248 260 257 257 258 263 219 220 235 242 249 251 252 255 252 241 232 225
269 272 266 260 260 257 255 259 257 259 264 265 268 276 276 275 276 269 269 269 270 277 283 289 282 293 300 285 234 260 259 217 217 224 232 239 245 247 248 249 239 228 222
256 259 263 262 260 259 258 258 264 262 258 260 261 254 259 275 277 274 266 264 264 268 272 281 271 270 277 282 281 271 259 255 227 198 215 230 239 242 245 241 237 229 223
256 255 257 256 260 260 263 258 262 261 257 256 258 259 260 259 261 272 275 273 272 270 270 281 283 269 260 264 271 274 271 265 260 180 196 216 227 234 236 234 229 227 224
261 260 255 254 257 258 254 253 254 257 258 258 256 255 258 260 260 267 267 270 271 263 261 269 274 277 270 267 271 268 270 273 267 200 191 199 210 221 225 222 219 219 219
255 258 258 257 256 253 250 253 251 251 257 260 259 259 258 254 254 261 258 260 269 273 268 266 271 271 263 256 259 268 271 261 269 269 247 224 204 209 213 213 212 212 213
252 255 260 260 257 249 250 260 261 254 256 259 258 260 255 252 272 271 279 279 274 271 272 269 271 273 277 273 268 272 274 273 255 263 266 253 229 229 208 205 202 204 209
253 253 250 255 259 266 317 278 270 261 254 255 258 258 250 229 237 242 260 275 278 272 278 280 278 279 276 277 282 276 278 279 274 255 267 265 254 252 240 221 175 186 201
244 249 249 253 262 271 269 259 266 265 258 258 258 261 268 258 244 250 240 241 244 248 256 269 279 282 282 281 279 274 274 278 283 282 268 268 256 251 242 191 163 185 198
251 252 252 251 259 254 243 253 269 256 257 257 253 250 259 269 268 272 262 254 253 248 249 253 267 274 279 284 270 269 272 265 261 256 258 267 263 264 262 227 170 188 202
257 254 251 252 254 248 223 242 262 260 253 254 252 250 253 255 263 272 260 260 264 261 240 238 255 264 273 269 271 269 263 266 267 259 242 266 275 277 264 238 188 189 204
251 256 253 252 256 257 218 230 260 261 259 258 250 243 240 251 249 253 260 263 265 270 273 252 239 239 242 238 235 253 263 264 271 267 233 259 270 276 269 245 237 207 205